Location: Battersea Observatory
(44.4318°N, 76.3841°W)
Time: 22:55:20
(UTC-04:00)

Tiros 1 despin weight - Pass Details

Date: 26 January 2022
Orbit: 592 x 639 km, 48.2° (Epoch: 25 May)

Event Time Altitude Azimuth Distance (km) Brightness Sun altitude
Rises 14:44:16 0° 184° (S) 2,842 ? 18.7°
Reaches altitude 10° 14:48:03 10° 152° (SSE) 1,957 ? 18.3°
Maximum altitude 14:49:35 12° 132° (SE) 1,861 ? 18.2°
Drops below altitude 10° 14:51:07 10° 112° (ESE) 1,973 ? 18.0°
Sets 14:54:58 0° 80° (E) 2,899 ? 17.6°
